Regional Weather Roundup
Issued by NWS

Home | Current Version | Previous Version | Graphics & Text | Print | Product List | Glossary On
Versions: 1 2 3 4 5 6 7 8 9 10 11 12 13 14 15 16 17 18 19 20 21 22 23 24 25 26 27 28 29 30 31 32 33 34 35 36 37 38 39 40 41 42 43 44 45 46 47 48 49 50
000
ASUS43 KIND 161359
RWRIN

WEATHER ROUNDUP FOR INDIANA
NATIONAL WEATHER SERVICE INDIANAPOLIS IN
900 AM EST MON JAN 16 2017

NOTE: "FAIR" INDICATES FEW OR NO CLOUDS BELOW 12,000 FEET WITH NO
SIGNIFICANT WEATHER AND/OR OBSTRUCTIONS TO VISIBILITY.

* - STATION DOES NOT REPORT WEATHER SUCH AS PRECIPITATION OR FOG.

+ - STATION NOT QUALITY CONTROLLED BY THE NATIONAL WEATHER SERVICE.
    USE DATA WITH CAUTION...ESPECIALLY DEWPOINT AND RELATIVE
    HUMIDITY OBSERVATIONS.

INZ001>003-010>013-019-020-161500-
NORTHWEST INDIANA

CITY           SKY/WX    TMP DP  RH WIND       PRES   REMARKS
GARY /AIRPORT/ CLOUDY    34  30  86 CALM      30.28R FOG
KNOX *+        CLOUDY    32  23  69 E3        30.26S
MONTICELLO +   CLOUDY    33  32  96 E3        30.25R FOG

$$

LMZ046-743>745-161500-
SOUTHERN LAKE MICHIGAN

STATION/POSITION TIME  TEMP    WIND        PRES    WAVE
                       AIR SEA DIR/SP/G            HT
                 (UTC) (F)     (DEG/KT/KT) (MB)    (FT)
BURNS HARBOR     1303   32      60/  8/ 10 1025.1
MICHIGAN CITY    1330   32      50/  5/  5   N/A

$$

INZ004-005-014>016-021>024-161500-
NORTH CENTRAL INDIANA

CITY           SKY/WX    TMP DP  RH WIND       PRES   REMARKS
ELKHART        CLOUDY    32  27  80 E6        30.27S HAZE    WCI  26
GOSHEN         CLOUDY    33  27  78 E6        30.26F HAZE    WCI  28
SOUTH BEND     CLOUDY    32  27  81 E5        30.27S HAZE    WCI  27

$$

INZ006>009-017-018-025>027-161500-
NORTHEAST INDIANA

CITY           SKY/WX    TMP DP  RH WIND       PRES   REMARKS
ANGOLA *+      CLOUDY    30  28  93 E3        30.28S
FORT WAYNE     CLOUDY    33  29  85 E7        30.28S FOG     WCI  27
KENDALLVILLE + CLOUDY    32  29  91 E3        30.27F FOG

$$

INZ028-029-035-036-043>045-051>053-161500-
WEST CENTRAL INDIANA

CITY           SKY/WX    TMP DP  RH WIND       PRES   REMARKS
CRAWFORDSVL +  CLOUDY    34  34 100 E7        30.24R FOG     WCI  28
LAFAYETTE      CLOUDY    35  34  96 E5        30.24S FOG     WCI  31
TERRE HAUTE    CLOUDY    39  37  92 SE6       30.23S FOG

$$

INZ030>032-037>040-046>048-054>057-064-065-161500-
CENTRAL INDIANA

CITY           SKY/WX    TMP DP  RH WIND       PRES   REMARKS
INDIANAPOLIS   CLOUDY    38  36  92 SE8       30.25R FOG
-EAGLE CREEK   CLOUDY    38  36  92 SE6       30.25R FOG
KOKOMO +       CLOUDY    33  33 100 E7        30.26S FOG     WCI  27
MT COMFORT *+  CLOUDY    37  36  93 SE7       30.25S
SHELBYVILLE    MOCLDY    39  36  89 SE6       30.25S FOG

$$

INZ033-034-041-042-049-050-058-059-161500-
EAST CENTRAL INDIANA

CITY           SKY/WX    TMP DP  RH WIND       PRES   REMARKS
MUNCIE         CLOUDY    37  35  92 SE6       30.25S FOG

$$

INZ060-061-067>069-081>083-085>088-161500-
SOUTHWEST INDIANA

CITY           SKY/WX    TMP DP  RH WIND       PRES   REMARKS
EVANSVILLE     CLOUDY    42  40  92 NE7       30.21F
HUNTINGBURG *+ CLOUDY    42  41  96 E5        30.23S

$$

INZ062-063-066-070>080-084-089>092-161500-
SOUTH CENTRAL AND SOUTHEAST INDIANA

CITY           SKY/WX    TMP DP  RH WIND       PRES   REMARKS
BLOOMINGTON    FOG       39  37  92 SE5       30.24R VSB 3/4
MADISON *+     CLOUDY    39  37  93 E6        30.29R VSB 1
SEYMOUR +      CLOUDY    41  41 100 SE5       30.27R FOG

$$





USA.gov is the U.S. government's official web portal to all federal, state and local government web resources and services.